This is the latest recevied weather packets stored in our database for station/object N5COP-13. If no packets are shown the sender has not sent any weather packets the latest 10 day(s).
| Time | Temp. | Humidity | Pressure | Rain* | Wind** | Luminosity | Snow |
|---|---|---|---|---|---|---|---|
| 1777501570 | 21.11° C | 29% | 1015 hPa | 0 mm | - | 473 W/m² | - |
| 1777501267 | 21.67° C | 29% | 1015 hPa | 0 mm | - | 481 W/m² | - |
| 1777500965 | 21.11° C | 30% | 1015 hPa | 0 mm | - | 492 W/m² | - |
| 1777500662 | 21.11° C | 30% | 1015.3 hPa | 0 mm | - | 504 W/m² | - |
| 1777500358 | 21.11° C | 30% | 1015.3 hPa | 0 mm | - | 513 W/m² | - |
| 1777500055 | 20.56° C | 30% | 1015.4 hPa | 0 mm | - | 525 W/m² | - |
| 1777499751 | 20.56° C | 30% | 1015.4 hPa | 0 mm | - | 541 W/m² | - |
| 1777499448 | 21.11° C | 30% | 1015.4 hPa | 0 mm | - | 556 W/m² | - |
| 1777499146 | 21.11° C | 30% | 1015.3 hPa | 0 mm | - | 574 W/m² | - |
| 1777498843 | 21.11° C | 30% | 1015.5 hPa | 0 mm | - | 587 W/m² | - |
| 1777498539 | 21.11° C | 30% | 1015.5 hPa | 0 mm | - | 595 W/m² | - |
| 1777498235 | 20.56° C | 30% | 1015.8 hPa | 0 mm | - | 612 W/m² | - |
| 1777497934 | 21.11° C | 30% | 1016 hPa | 0 mm | - | 622 W/m² | - |
| 1777497629 | 20.56° C | 30% | 1016 hPa | 0 mm | - | 627 W/m² | - |
| 1777497326 | 21.11° C | 29% | 1016.1 hPa | 0 mm | - | 646 W/m² | - |
| 1777497022 | 21.67° C | 29% | 1016.1 hPa | 0 mm | - | 662 W/m² | - |
| 1777496719 | 21.11° C | 30% | 1016.2 hPa | 0 mm | - | 674 W/m² | - |
| 1777496415 | 20.56° C | 30% | 1016.4 hPa | 0 mm | - | 602 W/m² | - |
| 1777496112 | 20.56° C | 31% | 1016.4 hPa | 0 mm | - | 695 W/m² | - |
| 1777495808 | 20° C | 30% | 1016.4 hPa | 0 mm | - | 710 W/m² | - |
| 1777495504 | 20.56° C | 31% | 1016.6 hPa | 0 mm | - | 708 W/m² | - |
| 1777495200 | 20° C | 31% | 1016.5 hPa | 0 mm | - | 630 W/m² | - |
| 1777494898 | 20° C | 31% | 1016.8 hPa | 0 mm | - | 635 W/m² | - |
| 1777494595 | 20° C | 30% | 1016.8 hPa | 0 mm | - | 725 W/m² | - |
| 1777494292 | 20.56° C | 30% | 1017 hPa | 0 mm | - | 663 W/m² | - |
* Rain latest hour (hover to see other rain measurements)
** Current wind speed in m/s (hover to see current wind gust speed)